TimeCST,TemperatureF,Dew PointF,Humidity,Sea Level PressureIn,VisibilityMPH,Wind Direction,Wind SpeedMPH,Gust SpeedMPH,PrecipitationIn,Events,Conditions,WindDirDegrees,DateUTC
12:15 AM,20.7,11.7,68,30.64,10.0,NW,4.6,-,N/A,,Clear,310,2013-11-12 06:15:00
12:35 AM,20.5,11.7,69,30.65,10.0,NW,5.8,-,N/A,,Clear,310,2013-11-12 06:35:00
12:55 AM,20.7,11.3,67,30.65,10.0,NW,4.6,-,N/A,,Clear,310,2013-11-12 06:55:00
1:15 AM,20.3,11.1,68,30.65,10.0,NW,8.1,-,N/A,,Clear,310,2013-11-12 07:15:00
1:35 AM,19.9,11.1,69,30.66,10.0,NW,4.6,-,N/A,,Clear,310,2013-11-12 07:35:00
1:55 AM,19.9,10.8,68,30.66,10.0,NW,5.8,-,N/A,,Clear,310,2013-11-12 07:55:00
2:15 AM,19.6,10.8,69,30.67,10.0,WNW,9.2,-,N/A,,Clear,290,2013-11-12 08:15:00
2:35 AM,19.4,10.9,70,30.68,10.0,WNW,9.2,-,N/A,,Clear,300,2013-11-12 08:35:00
2:55 AM,19.2,10.9,70,30.68,10.0,WNW,9.2,-,N/A,,Clear,290,2013-11-12 08:55:00
3:15 AM,19.0,10.6,70,30.69,10.0,WNW,8.1,-,N/A,,Clear,300,2013-11-12 09:15:00
3:35 AM,18.3,10.6,72,30.69,10.0,WNW,5.8,-,N/A,,Clear,300,2013-11-12 09:35:00
3:55 AM,18.1,10.6,72,30.70,10.0,WNW,6.9,-,N/A,,Clear,300,2013-11-12 09:55:00
4:15 AM,18.0,10.4,72,30.71,10.0,WNW,6.9,-,N/A,,Clear,300,2013-11-12 10:15:00
4:35 AM,17.6,10.4,73,30.73,10.0,WNW,9.2,-,N/A,,Clear,300,2013-11-12 10:35:00
4:55 AM,17.6,10.8,75,30.73,10.0,WNW,6.9,-,N/A,,Clear,300,2013-11-12 10:55:00
5:15 AM,17.2,10.6,75,30.74,10.0,WNW,6.9,-,N/A,,Clear,300,2013-11-12 11:15:00
5:35 AM,17.1,10.9,77,30.74,10.0,WNW,6.9,-,N/A,,Clear,300,2013-11-12 11:35:00
5:55 AM,16.7,10.6,77,30.75,10.0,WNW,8.1,-,N/A,,Clear,300,2013-11-12 11:55:00
6:15 AM,16.7,10.4,76,30.75,10.0,WNW,5.8,-,N/A,,Clear,300,2013-11-12 12:15:00
6:35 AM,16.5,10.4,77,30.75,10.0,WNW,5.8,-,N/A,,Clear,300,2013-11-12 12:35:00
6:55 AM,15.6,10.4,80,30.76,10.0,WNW,4.6,-,N/A,,Clear,290,2013-11-12 12:55:00
7:15 AM,16.2,10.6,79,30.77,10.0,WNW,6.9,-,N/A,,Clear,300,2013-11-12 13:15:00
7:35 AM,16.7,10.2,76,30.77,10.0,NW,4.6,-,N/A,,Clear,310,2013-11-12 13:35:00
7:55 AM,17.4,10.8,75,30.78,10.0,WNW,5.8,-,N/A,,Clear,300,2013-11-12 13:55:00
8:15 AM,17.8,10.6,73,30.78,10.0,WNW,8.1,-,N/A,,Clear,300,2013-11-12 14:15:00
8:35 AM,18.5,10.9,72,30.78,10.0,NW,6.9,-,N/A,,Clear,310,2013-11-12 14:35:00
8:55 AM,19.0,11.1,71,30.77,10.0,WNW,3.5,-,N/A,,Clear,300,2013-11-12 14:55:00
9:15 AM,19.4,10.8,69,30.77,10.0,WNW,5.8,-,N/A,,Clear,300,2013-11-12 15:15:00
9:35 AM,20.5,11.8,69,30.77,10.0,WNW,5.8,-,N/A,,Clear,300,2013-11-12 15:35:00
9:55 AM,21.2,11.5,66,30.78,10.0,NW,6.9,-,N/A,,Clear,320,2013-11-12 15:55:00
10:15 AM,22.1,12.2,66,30.78,10.0,NW,5.8,-,N/A,,Clear,310,2013-11-12 16:15:00
10:35 AM,23.4,12.0,62,30.77,10.0,West,6.9,-,N/A,,Clear,260,2013-11-12 16:35:00
10:55 AM,23.9,12.4,62,30.77,10.0,West,8.1,-,N/A,,Clear,280,2013-11-12 16:55:00
11:15 AM,24.1,11.3,58,30.76,10.0,WSW,6.9,-,N/A,,Clear,250,2013-11-12 17:15:00
11:35 AM,25.0,11.8,57,30.75,10.0,West,8.1,-,N/A,,Clear,270,2013-11-12 17:35:00
11:55 AM,25.5,12.0,57,30.75,10.0,West,10.4,-,N/A,,Clear,260,2013-11-12 17:55:00
12:15 PM,25.3,11.3,55,30.74,10.0,West,5.8,-,N/A,,Clear,280,2013-11-12 18:15:00
12:35 PM,26.8,12.4,55,30.74,10.0,West,9.2,-,N/A,,Clear,280,2013-11-12 18:35:00
12:55 PM,26.4,11.7,54,30.73,10.0,West,9.2,-,N/A,,Clear,280,2013-11-12 18:55:00
1:15 PM,26.6,11.1,52,30.73,10.0,WSW,8.1,-,N/A,,Clear,240,2013-11-12 19:15:00
1:35 PM,27.5,11.7,51,30.71,10.0,West,10.4,-,N/A,,Clear,270,2013-11-12 19:35:00
1:55 PM,27.5,11.8,52,30.72,10.0,West,11.5,-,N/A,,Clear,280,2013-11-12 19:55:00
2:15 PM,27.5,11.8,52,30.71,10.0,West,9.2,-,N/A,,Clear,270,2013-11-12 20:15:00
2:35 PM,28.0,12.9,53,30.69,10.0,West,10.4,-,N/A,,Clear,260,2013-11-12 20:35:00
2:55 PM,27.9,12.6,53,30.69,10.0,West,9.2,-,N/A,,Clear,260,2013-11-12 20:55:00
3:15 PM,27.5,12.2,53,30.69,10.0,West,6.9,-,N/A,,Clear,280,2013-11-12 21:15:00
3:35 PM,27.5,13.1,55,30.69,10.0,WSW,9.2,-,N/A,,Clear,250,2013-11-12 21:35:00
3:55 PM,27.0,12.9,56,30.69,10.0,West,9.2,-,N/A,,Clear,260,2013-11-12 21:55:00
4:15 PM,26.4,12.4,55,30.68,10.0,West,8.1,-,N/A,,Clear,260,2013-11-12 22:15:00
4:35 PM,25.5,13.1,59,30.67,10.0,West,8.1,-,N/A,,Clear,260,2013-11-12 22:35:00
4:55 PM,24.8,12.9,61,30.68,10.0,West,8.1,-,N/A,,Clear,270,2013-11-12 22:55:00
5:15 PM,23.9,13.1,63,30.67,10.0,West,5.8,-,N/A,,Clear,260,2013-11-12 23:15:00
5:35 PM,23.7,12.9,63,30.67,10.0,West,3.5,-,N/A,,Clear,260,2013-11-12 23:35:00
5:55 PM,23.4,12.9,64,30.66,10.0,WSW,5.8,-,N/A,,Clear,250,2013-11-12 23:55:00
6:15 PM,22.8,12.7,65,30.65,10.0,WSW,3.5,-,N/A,,Clear,250,2013-11-13 00:15:00
6:35 PM,22.3,12.6,66,30.64,10.0,West,5.8,-,N/A,,Clear,260,2013-11-13 00:35:00
6:55 PM,22.1,13.1,68,30.65,10.0,West,4.6,-,N/A,,Clear,260,2013-11-13 00:55:00
7:15 PM,21.2,13.1,71,30.65,10.0,West,4.6,-,N/A,,Clear,280,2013-11-13 01:15:00
7:35 PM,21.2,12.4,69,30.65,10.0,West,3.5,-,N/A,,Clear,280,2013-11-13 01:35:00
7:55 PM,21.0,12.4,69,30.65,10.0,West,3.5,-,N/A,,Clear,280,2013-11-13 01:55:00
8:15 PM,20.3,12.4,71,30.64,10.0,Calm,Calm,-,N/A,,Clear,0,2013-11-13 02:15:00
8:35 PM,20.5,12.0,70,30.63,10.0,Calm,Calm,-,N/A,,Clear,0,2013-11-13 02:35:00
8:55 PM,20.3,12.0,70,30.62,10.0,Calm,Calm,-,N/A,,Clear,0,2013-11-13 02:55:00
9:15 PM,19.6,12.0,72,30.62,10.0,Calm,Calm,-,N/A,,Clear,0,2013-11-13 03:15:00
9:35 PM,19.9,11.3,69,30.61,10.0,Calm,Calm,-,N/A,,Clear,0,2013-11-13 03:35:00
9:55 PM,19.2,11.3,71,30.62,10.0,Calm,Calm,-,N/A,,Clear,0,2013-11-13 03:55:00
10:15 PM,19.8,12.0,72,30.61,10.0,Calm,Calm,-,N/A,,Clear,0,2013-11-13 04:15:00
10:35 PM,19.2,11.8,73,30.60,10.0,Calm,Calm,-,N/A,,Clear,0,2013-11-13 04:35:00
10:55 PM,17.8,12.4,79,30.60,10.0,Calm,Calm,-,N/A,,Clear,0,2013-11-13 04:55:00
11:15 PM,17.8,12.4,79,30.59,10.0,Calm,Calm,-,N/A,,Clear,0,2013-11-13 05:15:00
11:35 PM,18.1,12.7,79,30.58,10.0,Calm,Calm,-,N/A,,Clear,0,2013-11-13 05:35:00
11:55 PM,18.5,12.7,78,30.58,10.0,Calm,Calm,-,N/A,,Clear,0,2013-11-13 05:55:00